Time,TemperatureF,DewpointF,PressureIn,WindDirection,WindDirectionDegrees,WindSpeedMPH,WindSpeedGustMPH,Humidity,HourlyPrecipIn,Conditions,Clouds,dailyrainin,SolarRadiationWatts/m^2,SoftwareType,DateUTC
2013-12-02 00:00:00,43.9,43.0,30.51,SE,126,0.0,-999.0,96,-99.99,,,0.02,0,weatherlink.com 1.10,2013-12-02 00:00:00,
2013-12-02 00:15:00,44.0,43.0,30.51,SE,126,0.0,-999.0,96,-99.99,,,0.02,0,weatherlink.com 1.10,2013-12-02 00:15:00,
2013-12-02 00:30:00,43.9,43.0,30.50,SE,126,0.0,-999.0,96,-99.99,,,0.02,0,weatherlink.com 1.10,2013-12-02 00:30:00,
2013-12-02 00:45:00,43.9,43.0,30.50,SE,126,0.0,-999.0,96,-99.99,,,0.02,0,weatherlink.com 1.10,2013-12-02 00:45:00,
2013-12-02 01:00:00,44.0,43.0,30.50,SE,126,0.0,-999.0,96,-99.99,,,0.02,0,weatherlink.com 1.10,2013-12-02 01:00:00,
2013-12-02 01:15:00,44.0,43.0,30.50,SE,126,0.0,-999.0,96,-99.99,,,0.02,0,weatherlink.com 1.10,2013-12-02 01:15:00,
2013-12-02 01:30:00,44.1,43.0,30.50,SE,126,0.0,-999.0,96,-99.99,,,0.02,0,weatherlink.com 1.10,2013-12-02 01:30:00,
2013-12-02 01:45:00,44.5,44.0,30.50,SE,126,0.0,-999.0,96,-99.99,,,0.00,0,weatherlink.com 1.10,2013-12-02 01:45:00,
2013-12-02 02:00:00,44.5,44.0,30.50,SE,126,0.0,-999.0,96,-99.99,,,0.00,0,weatherlink.com 1.10,2013-12-02 02:00:00,
2013-12-02 02:15:00,45.0,44.0,30.49,SSE,157,0.0,-999.0,96,-99.99,,,0.00,0,weatherlink.com 1.10,2013-12-02 02:15:00,
2013-12-02 02:30:00,45.6,46.0,30.49,SE,140,0.0,-999.0,100,-99.99,,,0.00,0,weatherlink.com 1.10,2013-12-02 02:30:00,
2013-12-02 02:45:00,45.7,44.0,30.49,SE,140,0.0,-999.0,95,-99.99,,,0.00,0,weatherlink.com 1.10,2013-12-02 02:45:00,
2013-12-02 03:00:00,46.1,45.0,30.48,South,182,1.0,-999.0,95,-99.99,,,0.00,0,weatherlink.com 1.10,2013-12-02 03:00:00,
2013-12-02 03:15:00,46.5,45.0,30.48,SSE,163,5.0,-999.0,95,-99.99,,,0.00,0,weatherlink.com 1.10,2013-12-02 03:15:00,
2013-12-02 03:30:00,46.7,45.0,30.47,SSW,193,1.0,-999.0,94,-99.99,,,0.00,0,weatherlink.com 1.10,2013-12-02 03:30:00,
2013-12-02 03:45:00,46.7,45.0,30.46,South,175,5.0,-999.0,93,-99.99,,,0.00,0,weatherlink.com 1.10,2013-12-02 03:45:00,
2013-12-02 04:00:00,46.8,45.0,30.45,SSW,198,0.0,-999.0,93,-99.99,,,0.00,0,weatherlink.com 1.10,2013-12-02 04:00:00,
2013-12-02 04:15:00,46.8,45.0,30.44,SSW,198,2.0,-999.0,93,-99.99,,,0.00,0,weatherlink.com 1.10,2013-12-02 04:15:00,
2013-12-02 04:30:00,46.8,45.0,30.44,SSW,194,0.0,-999.0,93,-99.99,,,0.00,0,weatherlink.com 1.10,2013-12-02 04:30:00,
2013-12-02 04:45:00,46.8,45.0,30.43,SSE,163,0.0,-999.0,93,-99.99,,,0.00,0,weatherlink.com 1.10,2013-12-02 04:45:00,
2013-12-02 05:00:00,46.6,45.0,30.43,SSE,163,1.0,-999.0,93,-99.99,,,0.00,0,weatherlink.com 1.10,2013-12-02 05:00:00,
2013-12-02 05:15:00,46.7,45.0,30.43,South,178,0.0,-999.0,93,-99.99,,,0.00,0,weatherlink.com 1.10,2013-12-02 05:15:00,
2013-12-02 05:30:00,46.5,45.0,30.43,SSE,155,1.0,-999.0,93,-99.99,,,0.00,0,weatherlink.com 1.10,2013-12-02 05:30:00,
2013-12-02 05:45:00,46.3,44.0,30.43,South,180,4.0,-999.0,93,-99.99,,,0.00,0,weatherlink.com 1.10,2013-12-02 05:45:00,
2013-12-02 06:00:00,46.3,44.0,30.42,SSE,164,0.0,-999.0,93,-99.99,,,0.00,0,weatherlink.com 1.10,2013-12-02 06:00:00,
2013-12-02 06:15:00,46.4,45.0,30.43,SE,145,0.0,-999.0,93,-99.99,,,0.00,0,weatherlink.com 1.10,2013-12-02 06:15:00,
2013-12-02 06:30:00,46.3,44.0,30.43,SE,145,0.0,-999.0,93,-99.99,,,0.00,0,weatherlink.com 1.10,2013-12-02 06:30:00,
2013-12-02 06:45:00,46.2,44.0,30.43,SE,145,0.0,-999.0,93,-99.99,,,0.00,0,weatherlink.com 1.10,2013-12-02 06:45:00,
2013-12-02 07:00:00,46.2,44.0,30.43,SE,145,1.0,-999.0,93,-99.99,,,0.00,0,weatherlink.com 1.10,2013-12-02 07:00:00,
2013-12-02 07:16:00,46.8,45.0,30.43,South,182,5.0,-999.0,94,-99.99,,,0.00,0,weatherlink.com 1.10,2013-12-02 07:16:00,
2013-12-02 07:31:00,47.1,45.0,30.42,SSW,203,6.0,-999.0,93,-99.99,,,0.00,0,weatherlink.com 1.10,2013-12-02 07:31:00,
2013-12-02 07:46:00,47.3,45.0,30.42,South,189,8.0,-999.0,92,-99.99,,,0.00,0,weatherlink.com 1.10,2013-12-02 07:46:00,
2013-12-02 08:01:00,47.4,45.0,30.43,SSW,197,4.0,-999.0,92,-99.99,,,0.00,0,weatherlink.com 1.10,2013-12-02 08:01:00,
2013-12-02 08:16:00,47.4,45.0,30.42,South,173,0.0,-999.0,92,-99.99,,,0.00,0,weatherlink.com 1.10,2013-12-02 08:16:00,
2013-12-02 08:31:00,47.4,45.0,30.42,SSE,167,4.0,-999.0,92,-99.99,,,0.00,0,weatherlink.com 1.10,2013-12-02 08:31:00,
2013-12-02 08:46:00,47.5,45.0,30.43,SSW,207,2.0,-999.0,92,-99.99,,,0.00,0,weatherlink.com 1.10,2013-12-02 08:46:00,
2013-12-02 09:01:00,47.1,45.0,30.43,SSW,207,5.0,-999.0,91,-99.99,,,0.00,0,weatherlink.com 1.10,2013-12-02 09:01:00,
2013-12-02 09:16:00,46.9,45.0,30.43,SW,232,2.0,-999.0,91,-99.99,,,0.00,11,weatherlink.com 1.10,2013-12-02 09:16:00,
2013-12-02 09:31:00,46.6,44.0,30.43,South,188,4.0,-999.0,92,-99.99,,,0.00,18,weatherlink.com 1.10,2013-12-02 09:31:00,
2013-12-02 09:46:00,46.5,45.0,30.43,SSW,194,2.0,-999.0,93,-99.99,,,0.00,21,weatherlink.com 1.10,2013-12-02 09:46:00,
2013-12-02 10:01:00,46.7,45.0,30.43,SSW,205,4.0,-999.0,94,-99.99,,,0.00,25,weatherlink.com 1.10,2013-12-02 10:01:00,
2013-12-02 10:16:00,46.8,45.0,30.41,WSW,242,4.0,-999.0,94,-99.99,,,0.00,18,weatherlink.com 1.10,2013-12-02 10:16:00,
2013-12-02 10:31:00,47.0,45.0,30.41,SW,216,4.0,-999.0,94,-99.99,,,0.00,14,weatherlink.com 1.10,2013-12-02 10:31:00,
2013-12-02 10:46:00,47.0,45.0,30.41,SSW,213,7.0,-999.0,93,-99.99,,,0.00,30,weatherlink.com 1.10,2013-12-02 10:46:00,
2013-12-02 11:01:00,47.5,45.0,30.40,SSW,211,3.0,-999.0,90,-99.99,,,0.00,40,weatherlink.com 1.10,2013-12-02 11:01:00,
2013-12-02 11:16:00,47.8,45.0,30.40,WSW,240,6.0,-999.0,89,-99.99,,,0.00,58,weatherlink.com 1.10,2013-12-02 11:16:00,
2013-12-02 11:31:00,48.0,45.0,30.39,SW,227,5.0,-999.0,88,-99.99,,,0.00,69,weatherlink.com 1.10,2013-12-02 11:31:00,
2013-12-02 11:46:00,48.0,45.0,30.39,SW,227,6.0,-999.0,88,-99.99,,,0.00,70,weatherlink.com 1.10,2013-12-02 11:46:00,
2013-12-02 12:01:00,48.0,45.0,30.39,South,182,4.0,-999.0,88,-99.99,,,0.00,74,weatherlink.com 1.10,2013-12-02 12:01:00,
2013-12-02 12:16:00,48.0,44.0,30.38,SW,227,5.0,-999.0,87,-99.99,,,0.00,74,weatherlink.com 1.10,2013-12-02 12:16:00,
2013-12-02 12:31:00,47.8,44.0,30.38,SW,224,6.0,-999.0,86,-99.99,,,0.00,60,weatherlink.com 1.10,2013-12-02 12:31:00,
2013-12-02 12:46:00,47.8,44.0,30.38,WSW,243,5.0,-999.0,85,-99.99,,,0.00,40,weatherlink.com 1.10,2013-12-02 12:46:00,
2013-12-02 13:02:00,47.5,43.0,30.37,SW,232,6.0,-999.0,84,-99.99,,,0.00,44,weatherlink.com 1.10,2013-12-02 13:02:00,
2013-12-02 13:16:00,47.5,43.0,30.37,SW,232,8.0,-999.0,84,-99.99,,,0.00,49,weatherlink.com 1.10,2013-12-02 13:16:00,
2013-12-02 13:31:00,47.3,42.0,30.36,South,186,6.0,-999.0,82,-99.99,,,0.00,53,weatherlink.com 1.10,2013-12-02 13:31:00,
2013-12-02 13:46:00,47.1,42.0,30.36,SSW,207,3.0,-999.0,81,-99.99,,,0.00,72,weatherlink.com 1.10,2013-12-02 13:46:00,
2013-12-02 14:01:00,46.7,42.0,30.35,SSW,195,2.0,-999.0,82,-99.99,,,0.00,77,weatherlink.com 1.10,2013-12-02 14:01:00,
2013-12-02 14:16:00,46.4,41.0,30.34,SW,225,10.0,-999.0,82,-99.99,,,0.00,32,weatherlink.com 1.10,2013-12-02 14:16:00,
2013-12-02 14:31:00,46.2,41.0,30.33,South,186,6.0,-999.0,82,-99.99,,,0.00,21,weatherlink.com 1.10,2013-12-02 14:31:00,
2013-12-02 14:46:00,46.0,41.0,30.33,SW,225,4.0,-999.0,81,-99.99,,,0.00,26,weatherlink.com 1.10,2013-12-02 14:46:00,
2013-12-02 15:01:00,45.9,41.0,30.33,SSW,195,6.0,-999.0,83,-99.99,,,0.00,18,weatherlink.com 1.10,2013-12-02 15:01:00,
2013-12-02 15:16:00,46.0,41.0,30.33,SW,231,5.0,-999.0,84,-99.99,,,0.00,11,weatherlink.com 1.10,2013-12-02 15:16:00,
2013-12-02 15:31:00,46.3,42.0,30.33,South,190,5.0,-999.0,85,-99.99,,,0.00,0,weatherlink.com 1.10,2013-12-02 15:31:00,
2013-12-02 15:46:00,46.3,42.0,30.33,SW,222,4.0,-999.0,85,-99.99,,,0.00,0,weatherlink.com 1.10,2013-12-02 15:46:00,
2013-12-02 16:02:00,46.4,42.0,30.33,SW,216,9.0,-999.0,85,-99.99,,,0.00,0,weatherlink.com 1.10,2013-12-02 16:02:00,
2013-12-02 16:17:00,46.3,42.0,30.33,SW,225,6.0,-999.0,85,-99.99,,,0.00,0,weatherlink.com 1.10,2013-12-02 16:17:00,
2013-12-02 16:32:00,46.3,42.0,30.33,WSW,242,5.0,-999.0,85,-99.99,,,0.00,0,weatherlink.com 1.10,2013-12-02 16:32:00,
2013-12-02 16:47:00,46.3,42.0,30.33,SW,219,5.0,-999.0,85,-99.99,,,0.00,0,weatherlink.com 1.10,2013-12-02 16:47:00,
2013-12-02 17:02:00,46.4,42.0,30.33,SSW,196,7.0,-999.0,85,-99.99,,,0.00,0,weatherlink.com 1.10,2013-12-02 17:02:00,
2013-12-02 17:17:00,46.4,42.0,30.32,SSW,193,7.0,-999.0,85,-99.99,,,0.00,0,weatherlink.com 1.10,2013-12-02 17:17:00,
2013-12-02 17:32:00,46.6,42.0,30.32,SW,229,5.0,-999.0,85,-99.99,,,0.00,0,weatherlink.com 1.10,2013-12-02 17:32:00,
2013-12-02 17:47:00,46.7,43.0,30.32,SSW,207,4.0,-999.0,86,-99.99,,,0.00,0,weatherlink.com 1.10,2013-12-02 17:47:00,
2013-12-02 18:02:00,46.6,43.0,30.31,South,185,4.0,-999.0,86,-99.99,,,0.00,0,weatherlink.com 1.10,2013-12-02 18:02:00,
2013-12-02 18:17:00,46.5,43.0,30.31,SSW,194,5.0,-999.0,87,-99.99,,,0.00,0,weatherlink.com 1.10,2013-12-02 18:17:00,
2013-12-02 18:32:00,46.6,43.0,30.31,SW,215,1.0,-999.0,87,-99.99,,,0.00,0,weatherlink.com 1.10,2013-12-02 18:32:00,
2013-12-02 18:47:00,46.6,43.0,30.31,SSW,198,7.0,-999.0,87,-99.99,,,0.00,0,weatherlink.com 1.10,2013-12-02 18:47:00,
2013-12-02 19:02:00,46.8,44.0,30.31,SSW,194,5.0,-999.0,88,-99.99,,,0.00,0,weatherlink.com 1.10,2013-12-02 19:02:00,
2013-12-02 19:17:00,46.9,44.0,30.31,SSE,163,5.0,-999.0,88,-99.99,,,0.00,0,weatherlink.com 1.10,2013-12-02 19:17:00,
2013-12-02 19:32:00,47.0,44.0,30.30,SSW,198,6.0,-999.0,88,-99.99,,,0.00,0,weatherlink.com 1.10,2013-12-02 19:32:00,
2013-12-02 19:47:00,47.0,44.0,30.30,SW,219,5.0,-999.0,88,-99.99,,,0.00,0,weatherlink.com 1.10,2013-12-02 19:47:00,
2013-12-02 20:02:00,47.0,44.0,30.30,SW,216,5.0,-999.0,89,-99.99,,,0.00,0,weatherlink.com 1.10,2013-12-02 20:02:00,
2013-12-02 20:17:00,47.2,44.0,30.30,South,190,5.0,-999.0,88,-99.99,,,0.00,0,weatherlink.com 1.10,2013-12-02 20:17:00,
2013-12-02 20:32:00,47.4,44.0,30.30,SSW,207,3.0,-999.0,88,-99.99,,,0.00,0,weatherlink.com 1.10,2013-12-02 20:32:00,
2013-12-02 20:47:00,47.3,44.0,30.30,South,177,6.0,-999.0,88,-99.99,,,0.00,0,weatherlink.com 1.10,2013-12-02 20:47:00,
2013-12-02 21:02:00,47.4,44.0,30.29,SW,222,8.0,-999.0,88,-99.99,,,0.00,0,weatherlink.com 1.10,2013-12-02 21:02:00,
2013-12-02 21:17:00,47.4,44.0,30.29,SW,234,9.0,-999.0,89,-99.99,,,0.00,0,weatherlink.com 1.10,2013-12-02 21:17:00,
2013-12-02 21:32:00,47.3,44.0,30.29,SW,229,6.0,-999.0,89,-99.99,,,0.00,0,weatherlink.com 1.10,2013-12-02 21:32:00,
2013-12-02 21:47:00,47.2,45.0,30.29,SSW,198,8.0,-999.0,90,-99.99,,,0.00,0,weatherlink.com 1.10,2013-12-02 21:47:00,
2013-12-02 22:02:00,47.1,45.0,30.29,SSW,206,7.0,-999.0,91,-99.99,,,0.00,0,weatherlink.com 1.10,2013-12-02 22:02:00,
2013-12-02 22:17:00,47.1,45.0,30.28,SW,222,3.0,-999.0,92,-99.99,,,0.00,0,weatherlink.com 1.10,2013-12-02 22:17:00,
2013-12-02 22:32:00,47.1,45.0,30.28,SSW,200,6.0,-999.0,92,-99.99,,,0.00,0,weatherlink.com 1.10,2013-12-02 22:32:00,
2013-12-02 22:47:00,47.3,45.0,30.28,SW,219,6.0,-999.0,91,-99.99,,,0.00,0,weatherlink.com 1.10,2013-12-02 22:47:00,
2013-12-02 23:02:00,47.5,45.0,30.28,SW,223,3.0,-999.0,91,-99.99,,,0.00,0,weatherlink.com 1.10,2013-12-02 23:02:00,
2013-12-02 23:17:00,47.7,45.0,30.28,SSW,211,6.0,-999.0,91,-99.99,,,0.00,0,weatherlink.com 1.10,2013-12-02 23:17:00,
2013-12-02 23:32:00,47.8,45.0,30.27,South,188,7.0,-999.0,91,-99.99,,,0.00,0,weatherlink.com 1.10,2013-12-02 23:32:00,
2013-12-02 23:47:00,47.8,45.0,30.27,South,173,5.0,-999.0,90,-99.99,,,0.00,0,weatherlink.com 1.10,2013-12-02 23:47:00,